Location: Newark
(44.3100°N, 0.7769°W)
Time: 02:31:28
(UTC+00:00)

Envisat - Pass Details

Date: 28 November 2019
Orbit: 764 x 766 km, 98.1° (Epoch: 07 December)

Event Time Altitude Azimuth Distance (km) Brightness Sun altitude
Rises 05:26:19 0° 33° (NNE) 3,239 6.5 -18.9°
Reaches altitude 10° 05:30:09 10° 63° (ENE) 2,306 6.2 -18.3°
Maximum altitude 05:32:15 12° 88° (E) 2,134 6.4 -17.9°
Drops below altitude 10° 05:34:21 10° 112° (ESE) 2,299 6.7 -17.5°
Sets 05:38:08 0° 142° (SE) 3,218 7.1 -16.9°
